Wind_Speed
23 22 21 21 21 22 23 25 26 27 29 30 31 32 33 34 35 36 37 38 38 39 39 40 39 39 39 39 38 38 37 37 37 37 36 36 35 34 33 33 32 32
23 22 22 23 24 24 26 27 29 31 32 34 35 36 38 39 41 41 41 40 40 40 40 39 39 38 38 38 37 37 36 35 35 35 35 34 34 33 31 30 29 28
24 24 25 27 28 29 31 32 34 36 37 38 38 39 40 41 43 43 43 42 41 41 40 39 38 37 37 37 36 35 34 34 34 34 33 32 31 30 29 29 28 27
27 29 30 32 33 34 36 38 39 41 41 42 42 41 41 42 43 43 43 42 41 41 40 38 37 36 35 34 33 33 32 32 32 32 31 30 30 29 29 29 28 28
33 36 38 38 38 37 37 38 39 40 41 41 41 41 42 42 43 43 43 42 41 39 38 36 35 34 33 32 32 32 31 31 30 30 30 29 29 29 29 29 29 28
39 41 40 39 38 36 36 37 38 38 39 40 40 41 41 42 43 43 43 41 39 36 35 34 33 33 32 32 32 32 31 30 29 29 29 29 29 29 30 30 30 30
40 39 37 36 36 36 37 39 40 39 39 39 41 41 42 43 43 43 41 39 36 34 33 32 32 32 33 33 33 32 31 30 30 30 30 30 31 32 32 33 33 33
38 36 35 35 36 37 39 41 42 41 40 40 41 42 42 42 42 41 39 37 35 34 34 33 33 33 33 34 33 33 33 32 32 32 33 33 33 34 34 35 36 36
39 38 37 36 37 39 41 43 44 43 41 40 40 40 41 40 40 39 37 36 35 35 34 34 35 35 35 35 35 35 35 35 35 35 35 36 36 37 37 38 38 39
42 40 38 38 39 41 42 44 45 44 40 39 39 38 38 39 38 37 36 36 36 36 36 36 37 37 37 37 37 37 37 37 38 38 39 39 39 39 39 39 40 41
44 41 39 39 40 42 43 43 44 43 40 38 38 37 37 37 36 36 36 37 37 37 37 37 38 38 38 38 38 39 39 40 40 41 42 42 42 41 41 41 42 42
42 40 39 39 40 42 42 42 43 43 40 37 36 35 35 36 35 36 36 37 38 38 38 37 37 38 38 39 39 40 41 41 42 42 43 43 43 43 43 43 44 44
40 39 39 39 39 39 39 40 41 40 39 36 34 33 33 34 34 34 35 35 36 36 37 37 37 37 38 39 39 40 41 41 42 42 42 43 43 44 44 45 45 46
39 38 38 37 37 36 37 38 38 37 37 35 33 32 32 32 33 33 34 34 34 35 35 35 35 36 37 38 39 40 41 41 42 43 44 45 46 46 47 48 49 50
36 36 36 34 34 34 35 35 35 34 34 34 33 32 32 32 33 33 34 34 34 34 34 35 35 36 37 38 39 41 42 43 44 45 47 48 48 49 50 51 52 53
33 33 33 32 32 32 33 33 33 33 33 33 33 33 32 32 33 34 34 35 35 36 37 37 38 39 40 41 43 44 45 46 47 48 49 49 50 50 51 52 53 54
32 32 32 31 31 32 33 33 33 33 34 34 34 34 34 35 35 36 37 38 38 39 39 40 41 42 43 44 46 47 48 49 50 51 51 52 53 53 54 55 55 56
33 33 33 33 33 33 34 34 35 35 36 36 37 37 38 38 39 39 40 40 40 40 41 42 43 44 45 46 47 48 49 50 51 52 52 53 54 55 56 57 57 58
34 35 35 35 36 36 36 36 37 38 38 39 40 40 41 41 40 41 41 41 41 42 42 43 44 45 46 47 48 49 50 51 52 53 53 54 54 55 55 56 57 57
37 38 38 38 38 39 39 39 39 40 40 41 41 42 42 42 42 43 43 43 44 45 45 46 47 47 48 49 50 50 51 52 53 53 53 53 53 53 53 54 54 53
39 40 40 41 41 41 42 42 42 42 43 43 43 44 44 45 45 45 46 46 47 47 48 48 49 49 49 49 49 50 50 51 52 52 51 51 51 51 51 51 51 51
42 42 42 43 43 43 44 45 45 45 45 46 46 46 46 47 47 47 47 47 48 48 48 48 48 48 48 48 48 48 48 49 49 49 49 49 49 49 50 50 50 50
45 45 46 46 46 47 47 47 47 47 47 47 47 46 46 46 46 46 46 46 46 47 46 46 45 46 46 46 46 46 47 47 47 48 48 48 48 48 49 49 49 49
47 47 47 47 48 48 48 48 48 48 48 48 48 47 46 46 45 45 45 45 45 45 45 44 44 44 45 45 45 45 46 46 46 47 47 47 47 47 47 47 47 47
48 48 48 47 47 47 47 47 47 47 47 47 48 47 47 46 46 45 45 45 45 44 44 44 44 43 44 44 44 44 45 46 46 46 46 46 45 45 45 44 44 44
48 48 48 48 47 47 46 46 45 45 45 46 46 47 46 46 45 45 45 44 44 44 44 44 44 43 43 43 43 43 44 45 45 45 45 44 43 42 42 41 41 42
Wind_Direction
260 260 261 263 267 270 272 272 271 270 270 270 270 271 272 272 272 271 271 270 270 270 271 271 270 268 267 266 265 265 264 264 265 265 265 266 267 268 269 270 270 271
258 259 261 264 268 272 275 275 275 274 273 273 274 275 276 276 275 274 272 270 269 268 267 266 265 263 263 262 262 262 262 263 264 265 266 266 267 268 269 271 272 273
263 266 266 267 269 273 277 278 278 277 277 277 277 277 278 277 276 273 271 269 267 266 265 263 262 260 260 260 260 260 260 261 262 263 264 265 266 267 269 271 273 274
268 274 277 277 279 281 282 282 280 280 280 279 278 278 277 276 274 271 270 269 266 265 263 262 260 259 258 258 258 259 260 261 261 262 264 265 267 268 270 271 273 274
274 284 290 290 288 287 285 284 281 279 277 276 276 275 275 273 272 270 269 268 265 262 260 259 258 259 259 260 261 262 263 263 263 264 265 266 267 268 270 271 273 274
285 292 295 293 290 287 286 285 282 278 275 274 273 272 272 271 270 269 267 263 260 258 256 256 256 258 260 262 263 264 263 262 262 262 263 264 266 268 270 271 272 273
293 295 293 291 289 288 288 287 283 278 275 273 271 270 269 268 267 265 262 258 256 255 254 255 257 259 261 263 263 263 261 259 259 260 261 263 266 268 270 271 272 273
296 294 291 291 291 290 288 285 280 275 272 270 269 268 268 267 264 261 257 254 253 253 254 256 258 260 261 261 261 259 258 257 257 259 261 263 266 268 270 271 272 273
296 294 291 289 290 290 288 283 276 270 267 266 267 268 269 267 262 258 254 252 252 252 254 256 259 260 260 259 259 258 258 258 259 261 263 265 267 268 269 271 272 273
292 290 287 286 287 287 288 284 276 268 263 263 266 269 268 265 261 258 256 254 254 254 255 256 257 258 259 259 259 260 261 262 264 265 267 268 269 270 270 271 272 273
287 285 284 284 284 285 287 285 277 268 262 261 264 265 264 262 260 259 258 257 256 255 255 256 257 258 259 260 261 262 264 265 266 268 269 270 271 271 272 272 273 273
283 281 280 280 280 282 284 282 277 270 265 262 261 260 260 258 258 258 258 258 258 257 257 257 257 259 260 261 262 262 264 265 266 267 269 270 271 272 272 273 274 275
283 280 279 279 279 281 281 279 274 270 267 265 262 260 259 259 258 258 259 260 260 260 260 260 260 261 262 263 264 264 265 266 267 269 270 272 273 274 275 276 277 278
286 283 281 281 280 280 278 276 274 271 269 267 265 263 263 263 263 263 264 264 264 264 263 264 265 266 267 268 268 269 270 270 272 273 274 275 276 276 278 279 279 280
288 286 285 284 282 281 278 276 275 274 272 271 271 270 270 269 269 270 270 270 270 269 269 269 269 269 270 270 270 271 271 272 272 273 274 274 275 276 277 277 278 278
290 288 286 285 283 281 280 279 278 278 277 276 276 276 274 273 273 273 273 273 273 272 272 272 271 271 272 272 272 272 272 273 273 273 274 275 275 276 277 277 277 277
290 288 286 284 282 280 280 280 280 280 280 279 278 277 276 276 276 276 275 275 274 273 272 271 271 272 272 272 272 272 271 272 272 273 275 276 277 278 278 278 278 278
290 288 286 284 283 281 281 280 280 280 280 280 280 280 280 280 279 278 277 275 274 273 273 272 273 273 273 273 273 272 272 272 272 273 274 276 276 277 277 277 277 277
290 288 287 286 285 284 283 282 282 282 282 282 282 282 282 282 281 280 279 278 278 278 277 277 277 276 276 276 276 276 276 276 276 276 276 276 276 276 275 275 275 275
289 289 288 287 287 287 287 286 286 285 285 285 284 284 284 283 283 282 282 282 282 282 281 281 280 279 278 278 278 278 277 278 278 278 277 277 276 276 275 275 275 274
289 289 289 289 289 289 289 289 289 288 288 287 287 287 286 286 286 285 285 285 284 283 283 282 281 280 280 279 279 279 279 279 279 279 278 278 277 277 276 276 276 275
290 290 290 290 290 290 290 290 290 290 290 290 289 289 289 288 288 287 286 286 284 283 282 282 281 281 280 280 280 279 279 279 278 278 278 278 277 277 276 276 276 275
291 291 291 291 292 292 292 293 293 293 292 292 291 291 290 289 288 287 285 284 283 282 282 281 281 281 281 280 280 279 279 279 278 278 278 277 276 276 275 275 275 274
292 292 292 292 292 292 292 293 293 293 293 292 292 291 290 289 288 286 286 285 284 284 283 282 282 281 281 281 280 280 279 279 278 277 277 276 275 274 274 274 274 274
293 294 294 293 293 292 292 292 291 291 291 290 289 289 288 288 287 286 286 286 285 285 284 283 282 281 281 280 279 279 278 278 277 276 275 275 274 274 274 274 274 274
296 296 296 295 295 294 293 293 292 291 290 289 288 288 287 287 286 285 285 284 284 283 283 282 281 280 279 279 278 278 277 277 277 276 276 275 275 275 275 274 274 274
Height
2982 2981 2981 2980 2980 2980 2979 2979 2979 2979 2978 2978 2977 2977 2976 2976 2975 2974 2973 2972 2972 2971 2970 2970 2969 2969 2968 2968 2967 2967 2967 2967 2967 2967 2967 2968 2969 2969 2969 2969 2969 2969
2979 2978 2977 2976 2976 2976 2976 2976 2975 2975 2974 2974 2973 2973 2972 2972 2971 2970 2969 2968 2967 2966 2966 2965 2965 2965 2964 2964 2964 2964 2964 2963 2963 2963 2963 2964 2964 2965 2965 2965 2965 2965
2976 2975 2974 2973 2973 2972 2972 2971 2971 2970 2970 2969 2969 2968 2967 2967 2966 2965 2964 2963 2962 2961 2961 2960 2960 2960 2960 2960 2960 2960 2960 2960 2959 2959 2959 2959 2960 2960 2960 2960 2960 2960
2973 2972 2971 2970 2969 2968 2967 2967 2966 2965 2964 2964 2963 2962 2962 2961 2960 2959 2959 2958 2957 2956 2956 2956 2955 2955 2955 2955 2956 2956 2956 2956 2955 2955 2955 2955 2955 2955 2955 2956 2956 2956
2969 2967 2966 2965 2964 2963 2962 2961 2960 2959 2958 2958 2957 2956 2955 2955 2954 2953 2953 2952 2951 2951 2950 2950 2950 2950 2951 2951 2951 2951 2951 2951 2950 2951 2951 2951 2951 2951 2951 2951 2952 2952
2964 2962 2960 2959 2958 2957 2955 2954 2954 2953 2952 2952 2951 2950 2950 2949 2948 2948 2947 2946 2945 2945 2945 2945 2945 2946 2946 2946 2946 2946 2946 2946 2946 2946 2946 2946 2947 2947 2947 2947 2947 2948
2958 2957 2955 2953 2953 2951 2950 2949 2948 2947 2947 2946 2945 2945 2944 2943 2942 2942 2941 2940 2940 2940 2940 2941 2941 2941 2941 2942 2942 2942 2942 2942 2941 2942 2942 2942 2942 2943 2943 2943 2943 2943
2952 2951 2949 2948 2947 2946 2945 2944 2943 2942 2941 2941 2940 2939 2938 2937 2936 2936 2935 2935 2935 2935 2936 2936 2936 2937 2937 2937 2938 2938 2938 2938 2937 2937 2937 2938 2938 2938 2938 2938 2939 2939
2946 2945 2944 2943 2942 2941 2941 2940 2938 2937 2936 2935 2935 2934 2933 2932 2931 2930 2930 2930 2930 2930 2931 2931 2932 2932 2933 2933 2933 2933 2933 2933 2933 2933 2933 2933 2933 2933 2934 2933 2933 2933
2942 2941 2939 2938 2938 2937 2936 2935 2933 2932 2930 2930 2929 2928 2928 2927 2926 2926 2925 2925 2925 2925 2925 2926 2926 2927 2928 2928 2929 2928 2928 2928 2928 2928 2928 2928 2928 2928 2928 2928 2928 2928
2937 2936 2934 2934 2933 2932 2931 2930 2928 2927 2925 2924 2923 2923 2923 2922 2922 2921 2921 2921 2921 2920 2920 2920 2921 2921 2922 2923 2923 2923 2923 2922 2922 2922 2922 2922 2922 2922 2922 2922 2922 2922
2931 2930 2929 2928 2928 2927 2926 2925 2924 2923 2921 2920 2918 2918 2918 2917 2917 2916 2916 2916 2916 2916 2916 2915 2915 2916 2916 2916 2917 2917 2917 2917 2917 2917 2917 2917 2917 2917 2917 2916 2916 2916
2925 2924 2924 2923 2922 2921 2921 2920 2919 2918 2917 2916 2914 2913 2913 2913 2912 2912 2911 2911 2911 2911 2911 2910 2910 2910 2910 2911 2911 2911 2911 2911 2911 2911 2911 2911 2910 2910 2910 2910 2909 2909
2921 2919 2919 2918 2917 2916 2915 2914 2914 2913 2912 2911 2910 2909 2909 2908 2907 2907 2907 2906 2906 2905 2905 2905 2905 2904 2904 2905 2905 2905 2905 2905 2905 2904 2904 2904 2903 2903 2903 2902 2902 2901
2916 2915 2914 2913 2912 2911 2911 2910 2909 2908 2907 2906 2906 2905 2904 2903 2902 2902 2901 2901 2900 2900 2900 2899 2899 2899 2898 2898 2898 2898 2898 2898 2898 2898 2898 2897 2897 2897 2896 2895 2895 2894
2912 2911 2910 2909 2908 2907 2907 2906 2905 2903 2902 2902 2901 2900 2899 2898 2897 2897 2896 2896 2895 2894 2894 2893 2893 2893 2892 2892 2892 2891 2891 2891 2891 2891 2891 2891 2890 2890 2889 2889 2888 2887
2908 2907 2906 2905 2904 2903 2903 2901 2900 2899 2898 2897 2896 2895 2894 2893 2892 2892 2891 2891 2890 2889 2888 2888 2887 2887 2886 2886 2885 2885 2884 2884 2884 2884 2884 2883 2883 2882 2881 2881 2880 2879
2905 2904 2902 2901 2900 2899 2898 2897 2896 2895 2893 2892 2891 2890 2889 2888 2887 2886 2885 2885 2884 2883 2882 2882 2881 2880 2880 2879 2878 2878 2877 2877 2877 2877 2877 2876 2876 2875 2874 2873 2872 2871
2901 2900 2899 2897 2896 2895 2893 2892 2891 2890 2888 2887 2886 2885 2884 2883 2882 2880 2879 2879 2878 2877 2876 2875 2874 2874 2873 2872 2871 2871 2870 2869 2869 2869 2869 2868 2868 2867 2865 2864 2864 2863
2897 2895 2894 2893 2891 2890 2888 2887 2885 2884 2883 2881 2880 2879 2878 2877 2876 2874 2873 2872 2871 2870 2869 2868 2867 2867 2866 2865 2864 2863 2862 2861 2861 2861 2860 2859 2859 2857 2856 2855 2855 2854
2892 2890 2889 2887 2886 2884 2883 2881 2879 2878 2876 2875 2874 2872 2871 2870 2869 2867 2866 2865 2864 2863 2862 2861 2860 2859 2858 2857 2856 2855 2854 2853 2852 2852 2851 2850 2849 2848 2847 2846 2845 2844
2886 2885 2883 2881 2880 2878 2876 2875 2873 2871 2870 2868 2867 2866 2864 2863 2862 2860 2859 2858 2857 2856 2855 2854 2852 2851 2850 2849 2848 2847 2846 2845 2844 2843 2843 2842 2841 2840 2839 2838 2837 2836
2880 2878 2877 2875 2873 2871 2870 2868 2866 2864 2863 2861 2860 2859 2857 2856 2855 2854 2852 2851 2850 2848 2847 2846 2845 2843 2842 2841 2840 2839 2838 2837 2836 2836 2835 2834 2833 2832 2831 2831 2830 2829
2874 2872 2870 2869 2867 2865 2863 2861 2860 2858 2856 2854 2853 2851 2850 2849 2847 2846 2845 2843 2841 2840 2839 2838 2837 2835 2834 2833 2832 2831 2830 2829 2829 2828 2828 2827 2826 2825 2824 2823 2823 2822
2868 2866 2864 2862 2860 2859 2857 2855 2853 2852 2850 2848 2846 2844 2843 2841 2840 2838 2837 2835 2834 2832 2831 2830 2830 2828 2827 2826 2825 2824 2823 2822 2821 2821 2820 2820 2819 2818 2817 2816 2815 2814
2862 2859 2857 2855 2853 2851 2850 2848 2846 2845 2843 2841 2839 2837 2835 2834 2832 2831 2830 2829 2827 2825 2824 2823 2822 2822 2820 2819 2818 2817 2816 2815 2814 2813 2812 2812 2811 2811 2810 2809 2808 2806